QTR1862 OEJN-OTBD

Flight info

Callsign QTR1862
Flight time N/A
Altitude 33000
Route EGREP B417 PATOR T532 DAW J852 KSA H744 KINIB Z511 GISRA L681 ORLEK
Aircraft B77W/H-SDE1E2E3FGHIJ2J3J4J5M1RWXY/LB1D1

Departure

Time 2026-04-27 03:06
Airport King Abdulaziz International Airport (OEJN)

Arrival

Time N/A
Airport Doha International Airport (OTBD)
Time Latitude Longitude Altitude Speed Heading
2026-04-27 02:49 21.66611 39.17265 62 ft 0 kts 249°
2026-04-27 02:57 21.66615 39.17276 62 ft 2 kts 241°
2026-04-27 02:58 21.66624 39.17289 62 ft 2 kts 226°
2026-04-27 02:58 21.66635 39.17300 62 ft 2 kts 214°
2026-04-27 02:58 21.66661 39.17313 62 ft 2 kts 192°
2026-04-27 02:59 21.66676 39.17315 62 ft 2 kts 180°
2026-04-27 02:59 21.66691 39.17314 62 ft 2 kts 168°
2026-04-27 02:59 21.66705 39.17309 62 ft 2 kts 158°
2026-04-27 02:59 21.66719 39.17303 62 ft 2 kts 158°
2026-04-27 03:00 21.66732 39.17298 62 ft 0 kts 160°
2026-04-27 03:00 21.66733 39.17297 62 ft 0 kts 160°
2026-04-27 03:01 21.66732 39.17297 62 ft 0 kts 160°
2026-04-27 03:02 21.66731 39.17298 62 ft 1 kts 160°
2026-04-27 03:02 21.66714 39.17305 62 ft 2 kts 160°
2026-04-27 03:02 21.66662 39.17325 62 ft 14 kts 160°
2026-04-27 03:02 21.66534 39.17389 62 ft 23 kts 139°
2026-04-27 03:03 21.66449 39.17520 62 ft 19 kts 110°
2026-04-27 03:03 21.66452 39.17764 62 ft 13 kts 30°
2026-04-27 03:03 21.66543 39.17762 62 ft 12 kts 13°
2026-04-27 03:04 21.66591 39.17828 62 ft 11 kts 66°
2026-04-27 03:04 21.66619 39.17903 62 ft 11 kts 70°
2026-04-27 03:04 21.66649 39.17986 62 ft 12 kts 62°
2026-04-27 03:04 21.66722 39.18019 62 ft 12 kts 348°
2026-04-27 03:05 21.66787 39.17995 62 ft 0 kts 339°
2026-04-27 03:05 21.66796 39.17991 62 ft 11 kts 339°
2026-04-27 03:05 21.67110 39.17868 62 ft 83 kts 339°
2026-04-27 03:06 21.67873 39.17567 62 ft 147 kts 340°
2026-04-27 03:06 21.69011 39.17121 150 ft 193 kts 340°
2026-04-27 03:06 21.70251 39.16630 920 ft 190 kts 342°
2026-04-27 03:06 21.71608 39.16351 1554 ft 202 kts 352°
2026-04-27 03:07 21.73056 39.16122 2186 ft 212 kts 351°
2026-04-27 03:07 21.74541 39.15919 2830 ft 221 kts
2026-04-27 03:07 21.76079 39.16345 3297 ft 240 kts 30°
2026-04-27 03:07 21.77448 39.17492 3853 ft 258 kts 40°
2026-04-27 03:08 21.78839 39.18722 4638 ft 266 kts 37°
2026-04-27 03:08 21.80328 39.19932 5515 ft 270 kts 34°
2026-04-27 03:08 21.81841 39.21122 5926 ft 273 kts 34°
2026-04-27 03:08 21.83396 39.22337 5992 ft 273 kts 34°
2026-04-27 03:09 21.84932 39.23537 5996 ft 273 kts 34°
2026-04-27 03:09 21.86475 39.24744 5998 ft 273 kts 34°
2026-04-27 03:09 21.88009 39.25944 5999 ft 274 kts 34°
2026-04-27 03:09 21.89554 39.27153 6002 ft 274 kts 34°
2026-04-27 03:10 21.91114 39.28374 6013 ft 275 kts 34°
2026-04-27 03:10 21.92666 39.29589 5994 ft 274 kts 34°
2026-04-27 03:10 21.94206 39.30791 5997 ft 279 kts 32°
2026-04-27 03:10 21.95892 39.31903 6711 ft 286 kts 28°
2026-04-27 03:11 21.97598 39.32997 7688 ft 285 kts 29°
2026-04-27 03:11 21.99303 39.34109 8294 ft 297 kts 30°
2026-04-27 03:11 22.01106 39.35298 8986 ft 305 kts 30°
2026-04-27 03:11 22.02939 39.36510 9713 ft 313 kts 30°
2026-04-27 03:12 22.04778 39.37729 10574 ft 314 kts 30°
2026-04-27 03:12 22.06666 39.38979 11185 ft 326 kts 30°
2026-04-27 03:12 22.08649 39.40292 11667 ft 343 kts 31°
2026-04-27 03:12 22.10735 39.41674 12140 ft 359 kts 31°
2026-04-27 03:13 22.12929 39.43128 12631 ft 376 kts 31°
2026-04-27 03:13 22.15202 39.44636 12989 ft 396 kts 31°
2026-04-27 03:13 22.17616 39.46237 13034 ft 420 kts 31°
2026-04-27 03:13 22.20123 39.47901 13021 ft 423 kts 31°
2026-04-27 03:14 22.22651 39.49580 13046 ft 425 kts 31°
2026-04-27 03:14 22.25209 39.51278 13428 ft 439 kts 31°
2026-04-27 03:14 22.27807 39.53004 14572 ft 434 kts 30°
2026-04-27 03:14 22.30277 39.54812 15576 ft 433 kts 37°
2026-04-27 03:15 22.32460 39.57040 16341 ft 441 kts 47°
2026-04-27 03:15 22.34324 39.59719 17012 ft 450 kts 57°
2026-04-27 03:15 22.35886 39.62675 17699 ft 457 kts 60°
2026-04-27 03:15 22.37427 39.65712 18350 ft 464 kts 60°
2026-04-27 03:16 22.38987 39.68781 18971 ft 471 kts 60°
2026-04-27 03:16 22.40575 39.71898 19614 ft 478 kts 60°
2026-04-27 03:16 22.42174 39.75027 20176 ft 485 kts 60°
2026-04-27 03:16 22.43821 39.78247 20797 ft 492 kts 60°
2026-04-27 03:17 22.45546 39.81464 21400 ft 497 kts 56°
2026-04-27 03:17 22.47675 39.84448 21930 ft 503 kts 46°
2026-04-27 03:17 22.50178 39.87082 22477 ft 507 kts 39°
2026-04-27 03:17 22.52830 39.89611 23090 ft 511 kts 38°
2026-04-27 03:18 22.55497 39.92141 23736 ft 513 kts 38°
2026-04-27 03:18 22.58190 39.94700 24320 ft 517 kts 38°
2026-04-27 03:18 22.60890 39.97269 24874 ft 521 kts 38°
2026-04-27 03:18 22.63614 39.99865 25377 ft 527 kts 37°
2026-04-27 03:19 22.66400 40.02525 25904 ft 531 kts 37°
2026-04-27 03:19 22.69174 40.05176 26482 ft 534 kts 37°
2026-04-27 03:19 22.71966 40.07847 27012 ft 538 kts 36°
2026-04-27 03:19 22.74743 40.10505 27482 ft 542 kts 36°
2026-04-27 03:20 22.77572 40.13215 28005 ft 545 kts 36°
2026-04-27 03:20 22.80423 40.15948 28458 ft 550 kts 36°
2026-04-27 03:20 22.83300 40.18708 28934 ft 553 kts 36°
2026-04-27 03:20 22.86181 40.21475 29454 ft 556 kts 36°
2026-04-27 03:21 22.89064 40.24246 30110 ft 554 kts 36°
2026-04-27 03:21 22.91928 40.27002 30836 ft 551 kts 36°
2026-04-27 03:21 22.94778 40.29745 31490 ft 548 kts 36°
2026-04-27 03:21 22.97644 40.32504 32103 ft 546 kts 36°
2026-04-27 03:22 23.00487 40.35244 32708 ft 545 kts 36°
2026-04-27 03:22 23.03316 40.37969 33188 ft 547 kts 35°
2026-04-27 03:22 23.06174 40.40723 33224 ft 549 kts 36°
2026-04-27 03:23 23.11830 40.46184 33224 ft 544 kts 35°
2026-04-27 03:23 23.17498 40.51660 33210 ft 546 kts 35°
2026-04-27 03:24 23.23149 40.57155 33199 ft 548 kts 38°
2026-04-27 03:24 23.27954 40.63692 33147 ft 561 kts 55°
2026-04-27 03:25 23.31187 40.71446 33056 ft 568 kts 66°
2026-04-27 03:25 23.33994 40.79509 33056 ft 568 kts 66°
2026-04-27 03:26 23.36777 40.87534 33054 ft 569 kts 67°
2026-04-27 03:26 23.39577 40.95623 33057 ft 568 kts 66°
2026-04-27 03:27 23.42335 41.03605 33060 ft 568 kts 67°
2026-04-27 03:27 23.45107 41.11641 33067 ft 567 kts 67°
2026-04-27 03:28 23.47881 41.19696 33067 ft 568 kts 66°
2026-04-27 03:28 23.50626 41.27683 33066 ft 567 kts 67°
2026-04-27 03:29 23.53387 41.35733 33064 ft 566 kts 67°
2026-04-27 03:29 23.56137 41.43762 33058 ft 568 kts 67°
2026-04-27 03:30 23.58877 41.51783 33056 ft 565 kts 67°
2026-04-27 03:30 23.61618 41.59817 33054 ft 566 kts 66°
2026-04-27 03:31 23.64342 41.67820 33036 ft 565 kts 67°
2026-04-27 03:31 23.67085 41.75892 33036 ft 567 kts 67°
2026-04-27 03:32 23.69691 41.83970 33036 ft 566 kts 69°
2026-04-27 03:32 23.72260 41.92075 33035 ft 566 kts 68°
2026-04-27 03:33 23.74839 42.00201 33051 ft 568 kts 68°
2026-04-27 03:33 23.76194 42.04208 33275 ft 574 kts 67°
2026-04-27 03:33 23.77605 42.08316 33957 ft 570 kts 67°
2026-04-27 03:33 23.78968 42.12290 34810 ft 563 kts 67°
2026-04-27 03:34 23.80354 42.16332 35049 ft 563 kts 67°
2026-04-27 03:34 23.83063 42.24262 35058 ft 556 kts 67°
2026-04-27 03:35 23.85752 42.32153 35061 ft 556 kts 67°
2026-04-27 03:35 23.88434 42.40045 35063 ft 556 kts 67°
2026-04-27 03:36 23.91119 42.47964 35069 ft 557 kts 67°
2026-04-27 03:36 23.93796 42.55877 35072 ft 556 kts 67°
2026-04-27 03:37 23.96475 42.63811 35073 ft 556 kts 67°
2026-04-27 03:37 23.99139 42.71714 35055 ft 558 kts 67°
2026-04-27 03:38 24.01809 42.79654 35062 ft 558 kts 68°
2026-04-27 03:38 24.04496 42.87660 35062 ft 558 kts 67°
2026-04-27 03:39 24.07137 42.95630 35071 ft 558 kts 68°
2026-04-27 03:39 24.09747 43.03567 35072 ft 559 kts 68°
2026-04-27 03:40 24.12388 43.11612 35072 ft 558 kts 68°
2026-04-27 03:40 24.15009 43.19608 35071 ft 559 kts 68°
2026-04-27 03:41 24.17633 43.27629 35075 ft 559 kts 68°
2026-04-27 03:41 24.20234 43.35596 35078 ft 559 kts 68°
2026-04-27 03:42 24.22835 43.43577 35078 ft 560 kts 68°
2026-04-27 03:42 24.25442 43.51593 35073 ft 558 kts 68°
2026-04-27 03:43 24.28048 43.59621 35074 ft 559 kts 68°
2026-04-27 03:43 24.30645 43.67638 35051 ft 559 kts 68°
2026-04-27 03:44 24.33244 43.75678 35048 ft 560 kts 69°
2026-04-27 03:44 24.35839 43.83722 35044 ft 560 kts 68°
2026-04-27 03:45 24.38427 43.91759 35037 ft 560 kts 68°
2026-04-27 03:45 24.41011 43.99802 35025 ft 561 kts 68°
2026-04-27 03:46 24.43593 44.07854 35010 ft 561 kts 68°
2026-04-27 03:46 24.45623 44.16111 35016 ft 562 kts 77°
2026-04-27 03:47 24.47102 44.24553 35015 ft 564 kts 78°
2026-04-27 03:47 24.48558 44.32939 35038 ft 562 kts 78°
2026-04-27 03:48 24.50017 44.41371 35059 ft 562 kts 78°
2026-04-27 03:48 24.51464 44.49759 35060 ft 562 kts 78°
2026-04-27 03:49 24.52918 44.58215 35062 ft 563 kts 78°
2026-04-27 03:49 24.54362 44.66636 35051 ft 561 kts 78°
2026-04-27 03:50 24.55796 44.75030 35040 ft 562 kts 78°
2026-04-27 03:50 24.57226 44.83429 35039 ft 561 kts 78°
2026-04-27 03:51 24.58664 44.91905 35040 ft 561 kts 78°
2026-04-27 03:51 24.60083 45.00302 35037 ft 563 kts 78°
2026-04-27 03:52 24.61511 45.08787 35037 ft 562 kts 78°
2026-04-27 03:52 24.62922 45.17204 35037 ft 563 kts 78°
2026-04-27 03:53 24.64328 45.25620 35036 ft 563 kts 78°
2026-04-27 03:53 24.65728 45.34031 35038 ft 562 kts 78°
2026-04-27 03:54 24.67131 45.42487 35035 ft 564 kts 78°
2026-04-27 03:54 24.68528 45.50938 35034 ft 563 kts 78°
2026-04-27 03:55 24.69924 45.59416 35038 ft 563 kts 78°
2026-04-27 03:55 24.71372 45.67854 35014 ft 562 kts 74°
2026-04-27 03:56 24.73557 45.76098 35017 ft 561 kts 71°
2026-04-27 03:56 24.75802 45.84300 35021 ft 562 kts 71°
2026-04-27 03:57 24.78047 45.92533 35019 ft 563 kts 71°
2026-04-27 03:57 24.80287 46.00780 35030 ft 563 kts 71°
2026-04-27 03:58 24.82517 46.09013 35037 ft 564 kts 71°
2026-04-27 03:58 24.84738 46.17236 35045 ft 562 kts 71°
2026-04-27 03:59 24.86966 46.25505 35051 ft 563 kts 71°
2026-04-27 03:59 24.89185 46.33762 35050 ft 563 kts 71°
2026-04-27 04:00 24.91388 46.41985 35029 ft 562 kts 71°
2026-04-27 04:00 24.93599 46.50254 35020 ft 564 kts 71°
2026-04-27 04:01 24.95804 46.58518 35014 ft 562 kts 71°
2026-04-27 04:01 24.98067 46.66738 34996 ft 560 kts 67°
2026-04-27 04:02 25.01190 46.74520 34989 ft 561 kts 62°
2026-04-27 04:02 25.04449 46.82298 34999 ft 558 kts 62°
2026-04-27 04:03 25.07697 46.90073 35005 ft 560 kts 62°
2026-04-27 04:03 25.10959 46.97905 35017 ft 558 kts 62°
2026-04-27 04:04 25.14194 47.05689 35025 ft 559 kts 62°
2026-04-27 04:04 25.17415 47.13460 35022 ft 559 kts 62°
2026-04-27 04:05 25.20656 47.21292 35016 ft 560 kts 62°
2026-04-27 04:05 25.23871 47.29075 35011 ft 559 kts 62°
2026-04-27 04:06 25.27094 47.36893 35005 ft 559 kts 62°
2026-04-27 04:06 25.30302 47.44690 35004 ft 560 kts 62°
2026-04-27 04:07 25.35112 47.56407 35000 ft 559 kts 62°
2026-04-27 04:07 25.38318 47.64232 34994 ft 559 kts 62°
2026-04-27 04:08 25.41518 47.72061 34972 ft 558 kts 62°
2026-04-27 04:08 25.44710 47.79891 34970 ft 559 kts 62°